Regional Weather Roundup
Issued by NWS Newport/Morehead, NC

Current Version | Previous Version | Text Only | Print | Product List | Glossary On
Versions: 1 2 3 4 5 6 7 8 9 10 11 12 13 14 15 16 17 18 19 20 21 22 23 24 25 26 27 28 29 30 31 32 33 34 35 36 37 38 39 40 41 42 43 44 45 46 47 48 49 50
266 ASUS42 KMHX 260113 RWRMHX WEATHER ROUNDUP FOR EASTERN NORTH CAROLINA NATIONAL WEATHER SERVICE NEWPORT/MOREHEAD CITY NC 900 PM EDT WED MAY 25 2016 NOTE: "FAIR" INDICATES FEW OR NO CLOUDS BELOW 12,000 FEET WITH NO SIGNIFICANT WEATHER AND/OR OBSTRUCTIONS TO VISIBILITY NCZ015>017-031-032-045>047-102-103-260200- NORTH COAST CITY SKY/WX TMP DP RH WIND PRES REMARKS EDENTON CLEAR 77 67 70 S10 30.15S ELIZABETH CITY CLEAR 75 62 64 S8 30.14R KITTY HAWK CLEAR 74 60 60 S6 30.15S MANTEO CLEAR 73 65 78 S7 30.16F $$ NCZ045>047-081-094-103-104-260200- CENTRAL COAST CITY SKY/WX TMP DP RH WIND PRES REMARKS FRISCO CLEAR 71 67 87 SW6 30.19R $$ NCZ095-097-098-100-101-260200- SOUTHERN COAST CITY SKY/WX TMP DP RH WIND PRES REMARKS BEAUFORT CLEAR 72 67 84 SW8 30.20R CEDAR ISLAND NOT AVBL JACKSONVILLE CLEAR 72 63 73 S5 30.18R PINEY ISLAND NOT AVBL WILMINGTON PTCLDY 74 61 63 S6 30.19R $$ NCZ011>013-027>030-043-044-078>080-089-090>093-098-260200- COASTAL PLAIN CITY SKY/WX TMP DP RH WIND PRES REMARKS AHOSKIE NOT AVBL CLINTON CLEAR 73 62 68 CALM 30.16S ELIZABETHTOWN NOT AVBL GOLDSBORO PTCLDY 78 60 54 SE5 30.15R GREENVILLE CLEAR 77 61 57 S10 30.17R HAVELOCK CLEAR 71 62 73 SW8 30.20R KENANSVILLE CLEAR 75 59 58 CALM 30.18R KINSTON CLEAR 75 59 57 S6 30.17S NEW BERN CLEAR 72 58 61 S5 30.19R RICHLANDS CLEAR 73 61 65 S7 30.19R ROCKY MOUNT CLEAR 72 62 71 CALM 30.15R WASHINGTON CLEAR 76 59 55 S5 30.16S WHITEVILLE CLEAR 75 63 64 S3 30.18R $$ AMZ130-135-150-152-154-156-158-170-250-252-270-ANZ085-086-088-633-658-670-260200- MARINE OBSERVATIONS STATION/POSITION TIME TEMP WIND PRES WAVE SWELL AIR SEA DIR/SP/G HT/PER HT/PER (UTC) (F) (DEG/KT/KT) (MB) (FT/S) (FT/S) CHESAPEAKE LIGHT 0000 70 160/ 12/ 12 1020.7 64 E VA BEACH 0050 65 60 200/ 8/ 10 1020.5 2/ 9 2/ 9 DUCK 0000 63 180/ 13/ 17 1020.0 2 E DUCK 0011 65 N/A 2/ 9 OREGON INLET 0000 74 200/ 12/ 13 1021.4 13E OREGON INLT 0000 67 N/A 2/ 8 2/ 8 HATTERAS CG 0000 71 210/ 7/ 11 1021.5 DIAMOND BUOY 0050 74 71 220/ 10/ 10 1022.0 2/ 9 2/ 9 CAPE LOOKOUT 0100 73 210/ 8/ 10 1022.2 BEAUFORT LAB 0000 71 200/ 8/ 12 1021.4 30 SE NEW RVR IN 0025 74 N/A 2/ 7 27 SE WRIGHTSVLE 0008 75 74 210/ 8/ 12 1021.6 5 SE WRIGHTSVLE 0008 74 73 210/ 8/ 12 1022.8 225 S CAPE HAT 0050 75 78 60/ 8/ 12 1023.5 2/ 8 2/ 8 41 SE CHARLESTON 0050 77 78 210/ 6/ 6 1022.2 2/ 8 2/ 8 $$

USA.gov is the U.S. government's official web portal to all federal, state and local government web resources and services.